Temperature
9 9 9 10 10 10 10 10 10 10 11 11 11 11 11 11 11 11 11 11 11 11 11 11 11 10 10 10 10 10 10 9 9 9 9 8 8 7 7 6 6 6 5
9 9 9 9 9 10 10 10 10 10 10 10 10 10 10 10 10 10 10 10 10 10 10 10 10 10 9 9 9 9 9 9 9 8 8 7 7 6 6 5 5 5 5
8 8 9 9 9 9 9 9 9 9 10 10 10 10 10 10 10 10 9 9 9 9 9 9 9 9 9 9 9 9 8 8 8 8 7 7 6 6 5 5 5 4 4
8 8 8 8 8 8 8 8 9 9 9 9 9 9 9 9 9 9 9 8 8 8 8 8 8 8 8 8 8 8 8 8 7 7 7 6 6 5 5 4 4 4 4
7 7 7 7 7 8 8 8 8 8 8 8 8 8 8 8 8 8 8 8 8 8 8 8 8 8 7 7 7 7 7 7 7 7 6 6 5 5 4 4 4 3 3
6 6 6 7 7 7 7 7 7 7 7 7 7 7 7 7 7 7 7 7 7 7 7 7 7 7 7 6 6 6 6 6 6 6 6 5 5 4 4 3 3 3 2
6 6 6 6 6 6 6 6 6 6 6 6 6 6 6 6 6 6 6 6 6 6 6 6 6 6 6 6 6 6 6 6 6 5 5 5 5 4 3 3 3 3 2
5 5 5 5 5 5 5 5 5 5 5 5 5 5 5 5 5 5 5 5 5 5 5 5 5 5 5 5 5 5 5 5 5 5 4 4 4 3 3 3 2 2 2
4 4 4 4 4 4 4 4 4 4 4 4 4 4 4 4 4 4 4 4 4 4 4 4 4 4 5 5 4 4 4 4 4 4 3 3 3 3 2 2 2 1 1
3 3 3 3 3 3 3 3 3 3 3 3 3 3 3 3 3 3 3 3 3 3 3 3 3 3 4 4 4 4 4 4 3 3 3 3 2 2 2 2 1 1 1
1 2 2 2 2 2 2 2 2 2 2 2 2 2 2 2 1 1 1 1 1 2 2 2 3 3 3 3 3 3 3 3 2 2 2 2 2 1 1 1 1 1 0
1 1 1 1 1 1 1 1 1 1 1 1 0 0 0 0 0 0 0 0 0 1 1 1 1 1 1 2 2 2 2 2 2 1 1 1 1 1 1 0 0 -0 -0
0 0 0 0 -0 -0 -0 -0 -0 -0 -1 -1 -1 -1 -1 -1 -1 -1 -1 -1 -1 -0 -0 0 0 0 1 1 1 1 1 1 1 1 1 1 1 0 -0 -0 -1 -1 -1
-1 -1 -1 -1 -1 -1 -1 -1 -2 -2 -2 -2 -2 -2 -2 -2 -2 -2 -2 -2 -1 -1 -1 -1 -1 -1 -0 -0 -0 -0 -0 0 0 0 0 -0 -1 -1 -1 -1 -1 -1 -1
-1 -1 -1 -2 -2 -2 -2 -2 -2 -3 -3 -3 -3 -3 -3 -3 -3 -3 -3 -2 -2 -2 -2 -2 -2 -1 -1 -1 -1 -1 -1 -1 -0 -0 -1 -1 -1 -1 -2 -2 -2 -2 -2
-2 -2 -2 -2 -3 -3 -3 -3 -3 -3 -3 -3 -4 -4 -4 -4 -3 -3 -3 -3 -3 -3 -3 -2 -2 -2 -2 -2 -1 -1 -1 -1 -1 -1 -1 -2 -2 -2 -2 -2 -3 -3 -2
-3 -3 -3 -3 -4 -4 -4 -4 -4 -3 -3 -4 -4 -4 -4 -4 -4 -4 -4 -4 -3 -3 -3 -3 -3 -2 -2 -2 -2 -2 -2 -2 -1 -1 -2 -2 -2 -2 -3 -3 -3 -3 -3
-4 -4 -4 -4 -4 -5 -5 -5 -5 -5 -5 -4 -4 -5 -5 -5 -5 -5 -5 -4 -4 -4 -4 -4 -3 -3 -3 -3 -2 -2 -2 -2 -2 -2 -2 -2 -3 -3 -3 -3 -3 -3 -3
-4 -5 -5 -5 -5 -5 -6 -6 -6 -6 -6 -6 -5 -5 -5 -5 -5 -5 -5 -5 -5 -5 -5 -4 -4 -3 -3 -3 -3 -3 -2 -2 -2 -2 -2 -2 -3 -3 -3 -3 -3 -3 -3
-5 -5 -6 -6 -6 -6 -6 -7 -7 -7 -7 -7 -6 -6 -6 -6 -6 -6 -6 -6 -6 -6 -5 -5 -4 -4 -4 -3 -3 -3 -3 -3 -2 -2 -2 -3 -3 -3 -3 -3 -3 -3 -3
-6 -6 -6 -6 -7 -7 -7 -7 -8 -8 -7 -7 -7 -7 -7 -7 -7 -7 -7 -6 -6 -6 -6 -5 -5 -5 -4 -4 -4 -3 -3 -3 -3 -3 -3 -3 -3 -3 -3 -4 -4 -4 -4
-7 -7 -7 -7 -7 -8 -8 -8 -8 -8 -8 -8 -8 -7 -7 -7 -7 -7 -7 -7 -7 -6 -6 -6 -5 -5 -5 -4 -4 -4 -4 -3 -3 -3 -3 -3 -3 -3 -4 -4 -4 -4 -4
-7 -7 -7 -8 -8 -8 -8 -8 -8 -8 -8 -8 -8 -8 -8 -8 -8 -8 -8 -7 -7 -7 -6 -6 -6 -5 -5 -5 -4 -4 -4 -4 -3 -3 -3 -3 -3 -4 -4 -4 -4 -4 -4
-8 -8 -8 -8 -8 -9 -9 -9 -9 -9 -9 -9 -9 -8 -8 -8 -8 -8 -8 -8 -7 -7 -7 -6 -6 -6 -5 -5 -5 -4 -4 -4 -4 -4 -4 -4 -4 -4 -4 -4 -4 -4 -4
-8 -8 -9 -9 -9 -9 -9 -9 -9 -9 -9 -9 -9 -9 -9 -9 -8 -8 -8 -8 -7 -7 -7 -7 -6 -6 -6 -5 -5 -5 -5 -4 -4 -4 -4 -4 -4 -4 -4 -4 -4 -4 -4
-9 -9 -9 -9 -9 -9 -9 -9 -9 -9 -9 -9 -9 -9 -9 -9 -9 -8 -8 -8 -8 -7 -7 -7 -6 -6 -6 -6 -5 -5 -5 -5 -5 -4 -4 -4 -4 -4 -4 -4 -4 -4 -5
Wind_Speed
9 8 7 5 5 6 5 5 5 5 5 6 6 6 6 6 6 6 6 7 7 6 6 7 7 6 6 5 5 5 5 5 5 2 2 3 4 5 5 6 6 5 5
10 9 8 7 7 6 4 4 3 4 4 4 4 4 4 4 5 6 6 6 7 8 8 7 8 6 7 6 5 6 5 5 5 5 3 3 4 5 5 4 4 4 4
11 11 11 9 9 7 5 4 3 3 2 3 3 3 4 4 5 5 6 6 7 8 8 9 8 8 8 6 6 6 5 4 4 4 4 3 2 3 3 2 2 2 3
11 12 12 10 9 7 6 6 5 3 2 1 2 3 3 4 4 4 5 6 6 7 7 8 8 9 9 9 8 8 6 6 5 5 4 3 3 3 3 3 3 2 2
11 12 10 9 8 8 7 6 5 4 3 1 0 1 2 3 3 4 4 5 6 6 6 6 7 9 10 9 7 8 8 7 6 6 5 4 4 4 5 4 4 2 2
10 10 9 9 9 8 7 6 6 5 4 3 2 2 2 2 3 4 4 4 5 5 5 5 5 7 9 12 12 12 12 9 9 7 6 6 7 5 4 4 4 3 3
9 9 9 9 8 8 7 7 6 5 5 4 3 3 3 4 4 5 5 3 4 5 5 5 4 6 8 6 9 11 12 13 12 9 8 8 7 8 8 6 5 4 4
8 9 8 8 8 7 7 6 5 4 4 4 4 3 3 4 6 6 5 3 3 4 5 6 6 6 7 8 6 6 6 6 8 7 7 7 7 7 8 8 7 4 2
9 9 9 8 8 8 8 7 5 4 4 4 4 4 4 5 6 6 5 2 3 4 4 5 6 6 10 12 8 7 6 4 5 7 8 8 9 11 10 7 6 4 3
8 8 8 7 7 7 7 7 5 5 5 5 5 4 5 5 7 7 6 3 4 4 4 5 8 9 11 13 9 9 9 7 6 6 5 6 5 8 12 8 8 5 3
6 6 7 7 7 7 6 6 6 5 5 5 6 5 5 6 7 8 8 4 4 5 5 5 6 11 13 14 12 9 11 8 7 7 5 4 3 3 4 5 6 5 5
6 6 7 7 6 6 6 6 6 5 5 6 6 6 5 5 6 8 10 9 8 6 6 5 6 11 13 14 12 12 13 10 6 6 6 6 5 5 4 4 5 4 3
6 7 7 7 7 6 6 7 6 5 5 5 5 6 6 4 6 11 12 12 12 8 6 9 10 13 12 11 13 14 12 7 7 7 8 7 5 5 5 4 4 5 5
6 6 6 6 7 7 6 5 5 6 6 6 6 6 6 6 5 5 6 7 9 8 7 9 12 12 10 9 9 9 7 8 8 8 7 6 5 6 5 4 4 4 3
6 6 6 6 6 7 6 6 6 6 7 8 7 6 7 8 9 12 10 7 6 7 6 5 4 4 5 5 5 5 6 7 8 7 7 7 7 7 5 5 4 4 4
6 6 6 6 6 6 7 8 9 10 13 14 13 12 9 12 16 16 16 15 15 13 9 6 6 6 7 7 7 7 7 8 8 8 7 8 8 8 7 6 5 5 5
6 7 6 6 6 7 7 8 9 10 12 13 13 15 14 16 16 16 16 15 15 13 8 6 6 7 7 7 7 8 8 7 8 8 8 8 8 8 7 7 7 5 5
7 8 7 6 6 6 7 7 7 9 10 9 10 14 16 15 16 15 15 12 8 7 6 7 7 7 7 7 7 7 7 7 8 8 9 9 9 8 8 8 8 7 6
7 6 6 6 6 7 7 7 7 8 8 9 9 10 13 14 14 14 12 6 6 6 6 6 6 6 6 6 7 7 7 8 8 9 9 10 9 9 9 9 9 11 8
6 10 9 7 7 7 7 7 8 8 8 8 8 8 8 9 7 7 6 6 6 6 6 6 6 6 6 6 6 6 6 7 8 8 9 9 10 9 10 10 9 9 8
6 8 11 8 7 7 7 8 8 8 8 8 8 10 14 9 7 7 7 7 6 7 6 6 6 5 5 5 5 6 7 7 8 8 8 9 10 9 9 9 9 9 8
6 6 6 7 7 7 8 7 7 8 9 9 8 9 13 8 7 7 7 7 7 6 6 6 5 5 5 5 5 5 6 7 7 8 8 9 9 9 9 9 9 9 9
6 7 7 7 7 10 10 7 8 8 8 8 8 8 7 7 7 8 8 7 7 6 6 5 5 5 4 4 4 5 6 7 7 8 8 9 9 9 9 9 10 10 9
6 7 7 7 7 7 8 8 8 8 8 8 8 8 7 7 7 8 8 7 7 6 6 5 5 6 5 4 3 3 4 5 6 7 9 9 9 9 9 9 10 10 10
6 6 7 7 7 8 8 8 8 8 8 8 8 7 7 7 7 7 7 7 7 6 6 6 4 4 4 4 3 3 4 6 6 6 7 7 9 9 9 10 9 9 9
6 7 7 7 7 7 7 8 8 8 7 7 7 7 7 7 7 7 7 6 6 6 5 5 5 4 4 3 4 4 4 6 7 8 6 6 7 8 9 8 10 10 10
Wind_Direction
57 67 78 88 101 106 114 133 149 152 154 165 176 180 185 190 189 194 201 199 203 205 199 200 206 194 194 195 190 189 195 190 205 181 146 151 162 169 164 170 175 177 184
47 56 61 65 75 83 88 94 106 135 153 160 164 171 180 190 193 198 206 208 208 211 208 204 207 197 197 192 190 195 197 191 187 188 176 172 174 176 168 171 174 180 187
42 47 50 50 54 59 62 69 83 98 120 137 154 173 188 200 205 208 211 214 216 216 210 205 203 196 201 196 192 194 191 187 178 177 177 169 160 154 156 165 163 171 196
40 43 42 38 39 40 41 45 48 58 81 134 179 195 206 211 215 219 216 218 220 219 215 208 203 203 204 196 196 195 185 182 177 172 171 170 166 155 158 177 191 194 204
39 40 35 31 32 33 33 30 30 31 32 34 18 235 227 219 220 223 220 222 221 222 219 214 209 207 206 202 200 194 184 186 182 184 183 174 179 171 187 177 185 176 207
38 34 27 27 28 27 23 21 22 17 13 16 1 318 283 270 260 247 235 226 223 219 222 221 212 208 208 209 209 201 193 189 192 192 195 196 196 186 168 168 160 161 222
34 28 23 20 19 15 12 15 11 3 360 356 344 325 301 289 279 264 252 236 226 226 224 218 218 214 205 201 206 205 206 205 198 191 197 201 187 185 171 171 177 180 200
25 20 15 11 8 4 5 3 354 347 343 333 322 313 305 302 298 286 279 264 244 238 230 220 215 212 206 194 191 194 198 203 201 199 200 199 191 180 179 177 173 153 114
14 6 2 0 358 355 353 345 339 335 331 323 318 315 307 304 301 295 289 260 253 252 245 234 225 221 216 204 195 195 199 206 205 194 192 190 189 185 170 141 143 153 184
356 350 350 351 349 343 335 327 324 322 313 312 309 303 293 291 293 292 287 261 253 255 250 239 232 231 224 214 204 199 205 202 180 174 173 168 169 180 180 173 167 166 167
338 340 342 344 340 333 327 322 319 317 313 306 300 296 289 287 291 289 284 273 258 255 251 247 241 237 235 226 217 212 214 193 177 172 164 157 151 158 165 166 170 166 169
339 341 339 338 337 334 326 322 316 312 310 305 302 300 292 289 288 285 282 277 276 265 257 250 245 244 242 237 228 219 211 193 170 170 174 181 181 181 172 158 155 149 155
341 338 334 334 333 330 327 324 321 314 307 305 301 299 299 291 285 285 284 280 276 273 264 258 255 248 242 239 233 223 209 192 176 184 193 194 185 171 148 131 116 110 91
332 327 327 330 328 326 325 322 319 316 311 307 304 301 300 295 285 277 271 275 274 272 267 259 257 252 242 234 230 220 205 193 189 194 190 176 158 155 159 155 152 149 137
327 325 326 324 320 319 318 313 313 303 306 310 304 298 298 296 292 295 292 279 271 267 273 259 246 239 231 226 217 208 198 194 197 183 177 172 172 170 170 161 153 152 162
327 323 319 316 315 316 316 315 308 307 311 311 310 307 300 296 300 298 296 291 284 274 272 254 242 234 232 226 218 211 208 206 199 187 183 181 180 180 175 167 165 170 177
314 314 313 313 313 314 314 316 315 317 315 311 311 311 309 308 306 306 300 295 290 280 267 256 244 235 231 224 218 213 212 209 198 191 189 186 182 180 177 178 179 178 182
313 313 314 307 306 305 305 306 305 309 315 314 312 311 311 311 311 309 307 304 292 282 263 258 253 243 234 227 221 218 213 204 198 195 190 186 184 182 182 184 185 184 183
310 307 306 304 303 302 301 300 300 299 299 304 308 311 312 311 309 307 310 298 289 284 275 267 260 250 240 231 223 217 211 206 199 194 191 188 186 186 189 189 187 192 186
305 309 313 307 304 304 303 302 302 300 300 301 303 306 311 309 305 307 304 295 290 286 280 274 268 257 244 234 223 216 212 207 201 198 192 189 188 189 190 188 187 188 193
301 307 314 310 303 301 302 301 301 301 301 301 300 302 309 309 306 304 302 296 292 290 284 278 271 262 252 236 220 217 213 208 202 197 193 189 187 188 189 187 188 189 188
305 304 306 305 304 303 302 301 301 299 300 301 301 305 312 311 304 301 301 300 294 290 284 278 273 264 256 242 224 219 216 209 203 196 192 188 185 185 183 184 186 187 187
305 305 305 304 304 307 308 303 303 302 301 302 305 306 307 305 304 305 304 302 300 297 291 281 275 269 261 253 231 224 222 212 202 192 190 187 184 184 184 186 186 185 189
303 303 302 303 304 303 302 301 301 303 304 304 305 307 308 308 307 307 308 306 305 302 297 291 282 274 267 262 251 243 231 211 194 190 187 187 185 184 184 185 187 188 189
306 305 305 304 305 306 306 305 304 305 307 308 308 309 310 309 309 309 309 309 309 306 306 305 297 288 273 270 269 258 237 216 201 185 181 186 185 183 183 184 184 182 183
310 310 308 306 306 307 308 308 308 310 309 309 309 308 308 307 308 310 312 314 316 314 312 310 312 311 300 283 276 265 244 220 201 187 179 180 182 183 181 183 181 181 179
Height
1424 1427 1430 1433 1436 1439 1441 1445 1448 1451 1454 1458 1461 1463 1466 1468 1471 1473 1475 1476 1478 1479 1480 1482 1483 1485 1486 1487 1488 1489 1490 1491 1492 1492 1494 1495 1496 1497 1497 1498 1498 1498 1498
1428 1430 1432 1434 1436 1439 1441 1443 1445 1448 1451 1454 1457 1459 1461 1463 1465 1467 1468 1470 1471 1472 1474 1475 1477 1478 1479 1480 1481 1482 1483 1485 1486 1486 1488 1489 1489 1491 1492 1492 1493 1493 1493
1432 1433 1434 1436 1437 1439 1441 1442 1444 1446 1448 1450 1453 1455 1456 1458 1460 1461 1462 1463 1465 1466 1467 1468 1469 1471 1471 1472 1474 1475 1476 1478 1479 1480 1481 1482 1483 1484 1486 1487 1487 1488 1488
1436 1436 1437 1438 1439 1440 1441 1442 1443 1444 1446 1448 1449 1451 1452 1453 1454 1455 1456 1457 1458 1458 1459 1460 1461 1463 1464 1466 1466 1467 1469 1471 1472 1473 1474 1475 1477 1478 1479 1480 1481 1482 1483
1440 1440 1440 1441 1441 1441 1441 1442 1443 1443 1444 1445 1446 1447 1448 1448 1449 1449 1450 1450 1451 1451 1452 1453 1453 1455 1457 1459 1460 1461 1462 1464 1465 1466 1467 1468 1470 1471 1473 1474 1476 1477 1477
1444 1443 1443 1443 1442 1442 1441 1441 1441 1442 1442 1442 1442 1443 1443 1443 1444 1444 1444 1444 1444 1444 1445 1446 1447 1449 1450 1451 1453 1455 1456 1457 1458 1459 1460 1461 1463 1465 1467 1469 1470 1471 1472
1446 1445 1445 1444 1443 1442 1441 1441 1440 1440 1439 1439 1439 1439 1438 1438 1438 1438 1438 1438 1438 1438 1439 1440 1441 1442 1444 1445 1446 1447 1449 1450 1452 1453 1454 1455 1457 1459 1461 1463 1464 1466 1468
1447 1446 1445 1444 1443 1442 1441 1439 1439 1438 1437 1436 1435 1434 1433 1433 1433 1432 1432 1432 1432 1433 1433 1434 1435 1436 1437 1439 1439 1440 1441 1443 1445 1446 1447 1450 1452 1454 1455 1457 1459 1461 1463
1448 1446 1445 1443 1442 1440 1439 1437 1436 1435 1433 1432 1431 1430 1429 1428 1428 1427 1427 1426 1426 1427 1427 1428 1429 1429 1431 1432 1433 1433 1434 1436 1437 1439 1441 1443 1445 1447 1449 1451 1453 1455 1456
1448 1446 1444 1442 1441 1439 1437 1435 1433 1431 1430 1428 1427 1426 1425 1424 1423 1422 1422 1421 1420 1420 1421 1421 1422 1423 1424 1425 1425 1426 1427 1429 1431 1433 1435 1436 1438 1441 1443 1445 1447 1449 1451
1447 1445 1443 1441 1439 1436 1434 1432 1430 1428 1426 1424 1423 1422 1420 1419 1418 1418 1417 1416 1415 1414 1414 1414 1415 1416 1417 1417 1418 1419 1421 1423 1424 1426 1428 1430 1432 1435 1437 1439 1441 1444 1446
1446 1443 1441 1438 1436 1434 1431 1428 1426 1424 1422 1420 1418 1416 1415 1414 1413 1412 1412 1411 1410 1409 1408 1408 1409 1409 1410 1411 1411 1412 1414 1416 1417 1419 1421 1423 1426 1428 1431 1433 1435 1438 1440
1444 1441 1439 1436 1433 1431 1428 1425 1423 1420 1418 1416 1413 1411 1409 1409 1408 1407 1406 1405 1404 1403 1402 1402 1402 1403 1403 1404 1405 1406 1408 1409 1410 1412 1414 1417 1420 1423 1425 1427 1429 1432 1435
1442 1439 1436 1433 1430 1428 1425 1422 1419 1417 1414 1412 1409 1407 1405 1404 1403 1401 1400 1399 1398 1397 1396 1396 1396 1396 1396 1396 1398 1399 1401 1402 1404 1406 1408 1411 1414 1416 1419 1421 1424 1426 1429
1439 1436 1433 1430 1427 1424 1421 1419 1416 1413 1411 1408 1406 1404 1401 1399 1398 1397 1395 1393 1392 1391 1390 1389 1389 1389 1389 1389 1391 1392 1394 1396 1397 1399 1402 1405 1407 1410 1413 1416 1419 1421 1424
1436 1433 1430 1427 1424 1421 1417 1414 1411 1409 1407 1404 1402 1400 1396 1395 1393 1391 1389 1388 1386 1385 1385 1383 1382 1382 1383 1383 1384 1385 1387 1389 1391 1393 1396 1398 1401 1404 1407 1410 1413 1416 1418
1433 1430 1427 1424 1420 1417 1413 1410 1406 1403 1402 1399 1396 1394 1391 1389 1387 1385 1383 1381 1380 1379 1378 1377 1376 1376 1376 1377 1378 1379 1380 1383 1385 1387 1390 1392 1395 1398 1401 1404 1407 1410 1413
1430 1427 1423 1420 1417 1413 1410 1406 1403 1399 1395 1392 1391 1388 1386 1383 1381 1379 1377 1375 1373 1372 1372 1371 1370 1370 1370 1371 1371 1373 1374 1376 1378 1381 1383 1386 1389 1392 1395 1398 1401 1405 1408
1426 1423 1419 1416 1413 1409 1406 1403 1399 1396 1392 1388 1385 1383 1381 1378 1375 1374 1372 1370 1367 1366 1365 1365 1364 1364 1364 1365 1365 1367 1368 1370 1372 1374 1377 1380 1383 1386 1389 1393 1396 1400 1403
1422 1419 1415 1412 1408 1405 1402 1398 1395 1392 1388 1385 1382 1379 1376 1373 1370 1368 1366 1364 1362 1361 1359 1358 1358 1358 1358 1359 1359 1361 1362 1364 1366 1368 1371 1374 1377 1381 1384 1387 1391 1394 1398
1418 1414 1411 1408 1404 1401 1398 1395 1392 1388 1385 1382 1378 1376 1373 1370 1367 1364 1362 1359 1357 1355 1354 1353 1352 1352 1352 1353 1354 1355 1356 1358 1360 1363 1366 1369 1372 1375 1379 1382 1386 1390 1393
1414 1410 1407 1404 1400 1397 1394 1391 1388 1385 1381 1378 1374 1372 1369 1366 1363 1360 1357 1355 1353 1351 1349 1348 1347 1347 1347 1348 1349 1350 1351 1353 1355 1357 1360 1363 1366 1370 1373 1377 1381 1384 1388
1410 1406 1403 1400 1396 1393 1390 1387 1384 1381 1378 1374 1371 1368 1365 1362 1360 1356 1353 1350 1348 1346 1344 1343 1342 1342 1342 1343 1344 1345 1346 1348 1350 1352 1355 1358 1361 1364 1368 1372 1375 1379 1383
1406 1402 1399 1396 1392 1389 1386 1383 1380 1377 1374 1371 1368 1365 1362 1359 1356 1353 1350 1347 1344 1342 1340 1339 1338 1338 1338 1338 1339 1340 1342 1343 1345 1347 1350 1353 1356 1360 1363 1367 1370 1374 1377
1401 1398 1395 1392 1388 1385 1382 1379 1376 1373 1371 1368 1365 1362 1359 1356 1353 1350 1347 1344 1341 1339 1337 1336 1335 1334 1334 1334 1335 1336 1337 1339 1341 1343 1346 1349 1352 1356 1359 1362 1365 1369 1372
1397 1394 1391 1388 1385 1381 1378 1375 1372 1370 1367 1364 1361 1358 1355 1352 1349 1346 1344 1341 1339 1336 1335 1333 1332 1331 1331 1331 1332 1333 1334 1336 1338 1340 1343 1346 1348 1352 1355 1358 1361 1365 1368